�������r�C�����j�^�v���󋵏��
Date,Time,5�C6���@���p�r�C��,����,����(m/s)
2022/07/28,00:00,3.7,�쐼,3.1
2022/07/28,00:10,3.6,�쐼,3.0
2022/07/28,00:20,3.6,��쐼,1.5
2022/07/28,00:30,3.7,���쐼,1.4
2022/07/28,00:40,3.5,���쐼,3.1
2022/07/28,00:50,3.7,���쐼,3.6
2022/07/28,01:00,3.8,��,2.0
2022/07/28,01:10,3.7,���쐼,0.6
2022/07/28,01:20,3.8,��쐼,1.1
2022/07/28,01:30,3.7,���쐼,1.7
2022/07/28,01:40,3.6,���쐼,2.3
2022/07/28,01:50,3.8,���쐼,2.8
2022/07/28,02:00,3.9,���쐼,2.3
2022/07/28,02:10,3.7,�쐼,2.6
2022/07/28,02:20,3.7,��,3.3
2022/07/28,02:30,3.5,��,2.3
2022/07/28,02:40,3.7,���쐼,2.0
2022/07/28,02:50,3.6,��,1.5
2022/07/28,03:00,3.7,�k��,1.9
2022/07/28,03:10,3.7,�k,2.0
2022/07/28,03:20,3.6,�k��,1.1
2022/07/28,03:30,3.7,-,CALM
2022/07/28,03:40,3.7,�k��,1.2
2022/07/28,03:50,3.6,-,CALM
2022/07/28,04:00,3.6,�k,0.6
2022/07/28,04:10,3.6,�k��,1.2
2022/07/28,04:20,3.7,�k��,1.7
2022/07/28,04:30,3.7,�k��,1.5
2022/07/28,04:40,3.6,�k�k��,2.0
2022/07/28,04:50,3.7,�k�k��,2.5
2022/07/28,05:00,3.8,�k,2.0
2022/07/28,05:10,3.6,�k�k��,1.4
2022/07/28,05:20,3.7,�k��,1.2
2022/07/28,05:30,3.8,�k,0.9
2022/07/28,05:40,3.5,�k,0.9
2022/07/28,05:50,3.6,�k,1.2
2022/07/28,06:00,3.6,�k,1.1
2022/07/28,06:10,3.7,�k�k��,1.2
2022/07/28,06:20,3.5,�k,1.5
2022/07/28,06:30,3.7,�k�k��,1.7
2022/07/28,06:40,3.7,�k�k��,1.5
2022/07/28,06:50,3.6,�k��,1.1
2022/07/28,07:00,3.6,�k�k��,0.9
2022/07/28,07:10,3.7,�k,0.6
2022/07/28,07:20,3.8,�k�k��,1.2
2022/07/28,07:30,3.6,�k�k��,2.2
2022/07/28,07:40,3.7,�k,2.6
2022/07/28,07:50,3.5,�k,2.2
2022/07/28,08:00,3.7,�k,2.3
2022/07/28,08:10,3.8,�k�k��,2.3
2022/07/28,08:20,3.7,�k�k��,2.3
2022/07/28,08:30,3.7,�k�k��,1.4
2022/07/28,08:40,3.6,�k,1.4
2022/07/28,08:50,3.7,�k�k��,1.4
2022/07/28,09:00,3.6,�k�k��,1.2
2022/07/28,09:10,3.5,�k��,1.1
2022/07/28,09:20,3.6,�k�k��,1.4
2022/07/28,09:30,3.5,�k�k��,2.3
2022/07/28,09:40,3.6,�k�k��,2.0
2022/07/28,09:50,3.6,�k�k��,2.0
2022/07/28,10:00,3.6,�k�k��,2.2
2022/07/28,10:10,3.8,�k�k��,2.2
2022/07/28,10:20,3.7,�k�k��,2.6
2022/07/28,10:30,3.7,�k�k��,2.0
2022/07/28,10:40,3.7,�k��,1.9
2022/07/28,10:50,3.6,�k,1.5
2022/07/28,11:00,3.7,�k��,1.7
2022/07/28,11:10,3.5,���k��,1.4
2022/07/28,11:20,3.8,���k��,2.3
2022/07/28,11:30,3.6,�k��,1.7
2022/07/28,11:40,3.6,���k��,2.3
2022/07/28,11:50,3.5,�k�k��,2.0
2022/07/28,12:00,3.5,�k�k��,2.6
2022/07/28,12:10,3.7,�k��,2.9
2022/07/28,12:20,3.6,�k��,2.6
2022/07/28,12:30,3.8,�k��,1.7
2022/07/28,12:40,3.8,��,1.5
2022/07/28,12:50,3.7,���k��,1.9
2022/07/28,13:00,3.6,��,2.0
2022/07/28,13:10,3.8,��,1.5
2022/07/28,13:20,3.5,��,1.9
2022/07/28,13:30,3.6,���쓌,2.5
2022/07/28,13:40,3.5,���k��,1.5
2022/07/28,13:50,3.7,��,2.0
2022/07/28,14:00,3.7,���쓌,2.3
2022/07/28,14:10,3.7,��,1.5
2022/07/28,14:20,3.7,��,2.0
2022/07/28,14:30,3.5,���쓌,2.0
2022/07/28,14:40,3.6,�쓌,2.6
2022/07/28,14:50,3.7,���쓌,2.0
2022/07/28,15:00,3.6,�쓌,1.9
2022/07/28,15:10,3.6,�쓌,2.0
2022/07/28,15:20,3.5,��쓌,1.2
2022/07/28,15:30,3.7,�쓌,1.2
2022/07/28,15:40,3.7,���쓌,1.1
2022/07/28,15:50,3.7,�쓌,1.5
2022/07/28,16:00,3.8,��,1.2
2022/07/28,16:10,3.5,���쓌,1.4
2022/07/28,16:20,3.7,��,1.4
2022/07/28,16:30,3.9,�쓌,1.2
2022/07/28,16:40,3.6,�쓌,1.9
2022/07/28,16:50,3.7,���쓌,1.7
2022/07/28,17:00,3.7,��,2.0
2022/07/28,17:10,3.5,���쓌,2.3
2022/07/28,17:20,3.7,��,1.2
2022/07/28,17:30,3.7,�k��,1.2
2022/07/28,17:40,3.7,�k�k��,1.7
2022/07/28,17:50,3.7,�k�k��,0.9
2022/07/28,18:00,3.8,���k��,1.1
2022/07/28,18:10,3.8,�k��,1.2
2022/07/28,18:20,3.6,���k��,1.1
2022/07/28,18:30,3.7,�k�k��,1.2
2022/07/28,18:40,3.7,�k�k��,2.3
2022/07/28,18:50,3.6,�k�k��,2.6
2022/07/28,19:00,3.6,�k�k��,1.7
2022/07/28,19:10,3.6,�k�k��,0.9
2022/07/28,19:20,3.5,���k��,1.1
2022/07/28,19:30,3.7,���쓌,1.2
2022/07/28,19:40,3.8,-,CALM
2022/07/28,19:50,3.7,-,CALM
2022/07/28,20:00,3.4,�k��,0.6
2022/07/28,20:10,3.6,-,CALM
2022/07/28,20:20,3.7,�k,0.9
2022/07/28,20:30,3.8,�k�k��,0.9
2022/07/28,20:40,3.7,�k�k��,0.6
2022/07/28,20:50,3.7,�k�k��,0.6
2022/07/28,21:00,3.5,���k��,0.8
2022/07/28,21:10,3.5,-,CALM
2022/07/28,21:20,3.6,���k��,0.7
2022/07/28,21:30,3.7,�k��,0.5
2022/07/28,21:40,3.7,�k�k��,1.4
2022/07/28,21:50,3.8,�k,1.1
2022/07/28,22:00,3.6,�k,1.7
2022/07/28,22:10,3.7,�k,2.6
2022/07/28,22:20,3.5,�k,2.3
2022/07/28,22:30,3.7,�k,1.5
2022/07/28,22:40,3.6,�k�k��,0.9
2022/07/28,22:50,3.6,�k,0.8
2022/07/28,23:00,3.6,�k,2.5
2022/07/28,23:10,3.8,�k,1.9
2022/07/28,23:20,3.7,�k,1.4
2022/07/28,23:30,3.7,�k�k��,1.5
2022/07/28,23:40,3.7,�k�k��,0.9
2022/07/28,23:50,3.7,�k�k��,1.4
